STARLINK-11392, 63056

Orbit data source: Space-Track

STARLINK-11392, 63056 is a payload satellite owned by SpaceX/Seattle (US) in LEO that was launched on Fri, 21 Feb 2025 UTC via an FALCON 9 launch vehicle from the Air Force Eastern Test Range (AFETR). Payload-class satellites include a variety of spacecraft equipped with specific instruments for various scientific and technological missions. These include communications satellites like Starlink; space stations such as the ISS; scientific satellites like the Hubble; Earth observation satellites from companies like Planet Labs, Umbra, and HawkEye 360; GPS; miniature CubeSats for education and research; and military/defense satellites.

Loading next visibility...
Identifier
63056, 2025-035E
Orbit
LEO
Country
Flag of USUS
Related business
Manufacturer
SpaceX/Seattle
Mission
Operational Commercial Communications
Bus & Motor
STARLINK V2MD, Unknown motor
Mass
960 kg wet, ~910 kg dry
Launch date (UTC)
2025-02-21 (1 year ago)
Launch vehicle
FALCON 9
Launch site
Air Force Eastern Test Range (AFETR)
Object type
Payload
Rocket body
Debris
Shape & HBR
Box + 2 Pan, 18.1 m
Radar Cross Section
36.964 m², Large (>1 m²)

Expand to show TLE details & history
Last TLE update: 1 day ago

TLE from 1 day ago
0 STARLINK-11392
1 63056U 25035E   26170.57893254  .00197676  00000-0  15067-2 0  9991
2 63056  42.9999 121.3485 0000552 355.4278   4.6585 15.70855051 77249
Epoch: 2026-06-19T13:53Z
TLE epoch observation values (Epoch: 2026-06-19T13:53:39.771Z)
Latitude
0.00002°
Longitude
5.12692°
Altitude
355.853 km
Speed
7.698 km/s
True Right ascension
08h 05m 23s
True Declination
0° 00' 00"
Sunlit
Object was in daylight at epoch
Visualization orbit readout
Latitude
Unknown
Longitude
Unknown
Altitude
Unknown
Speed
Unknown
Apparent Right ascension
Unknown
Apparent Declination
Unknown
Sunlit
N/A
Visualization observer readout
Local Sidereal Time
08:33:27
Azimuth
Unknown
Elevation
Unknown
Doppler factor
Unknown
Orbital elements
Apogee altitude
358.806 km
Perigee altitude
358.062 km
Semi-major axis
6,736.571 km
Eccentricity
0.00006
Inclination
42.9999°
RAAN
121.3485°
Arg. of periapsis
355.4278°
True anomaly
4.65901°
Mean anomaly
4.6585°
Eccentric anomaly
4.65876°
Mean motion
3.92541 °/min
Orbital period
91.71 mins
BSTAR
0.0015067
Loading maneuver chart data...
Computing Atmospheric mass density...
Loading historical data...
Loading historical data...
Loading historical data...
Loading historical data...
Loading historical data...
Loading historical data...
Loading historical data...

Documentation

Showing up to 5 results
|